WXForecasting.com
Harvey, MI - Weather Station Data
 
Daily Summary for December 19, 2014 Units:  English    Metric   Both
« Previous Day
Next Day »
Daily Weekly Monthly Yearly Custom
  Current: High: Low: Average:
Temperature: 31.9 °F 31.9 °F 21.6 °F 26 °F
Dew Point: 25.0 °F 26.0 °F 19.0 °F 22.7 °F
Humidity: 77% 88% 77% 87%
Wind Speed: 0.0mph 1.0mph 0.0mph 0mph
Wind Gust: 1.0mph 2.0mph - -
WindCalm - - NE
Pressure: 30.29 in 30.29 in 30.25 in -
Precipitation: 0.00 in      
Historical Graphs
 
 
Tabular Data for December 19, 2014
Time Temp Dew Point Pressure Wind Wind Speed Wind Gust RH Rain Rate/Hour
00:12 21.6 °F 19.0 °F 30.27 in Calm   1.0 mph 88% 0.00 in
00:27 22.2 °F 19.0 °F 30.26 in NE 1.0 mph 1.0 mph 88% 0.00 in
00:42 22.5 °F 19.0 °F 30.26 in Calm     87% 0.00 in
00:58 22.5 °F 19.0 °F 30.25 in Calm   1.0 mph 87% 0.00 in
01:12 23.0 °F 20.0 °F 30.25 in Calm     88% 0.00 in
01:27 23.1 °F 20.0 °F 30.25 in Calm     87% 0.00 in
01:42 23.2 °F 20.0 °F 30.25 in Calm     87% 0.00 in
01:57 23.3 °F 20.0 °F 30.25 in Calm     88% 0.00 in
02:12 23.6 °F 21.0 °F 30.25 in Calm   1.0 mph 88% 0.00 in
02:27 23.7 °F 21.0 °F 30.25 in Calm     88% 0.00 in
02:42 24.2 °F 21.0 °F 30.25 in Calm   2.0 mph 88% 0.00 in
02:58 24.6 °F 22.0 °F 30.25 in Calm     88% 0.00 in
03:13 24.8 °F 22.0 °F 30.25 in Calm     88% 0.00 in
03:28 25.0 °F 22.0 °F 30.25 in Calm   1.0 mph 88% 0.00 in
03:43 25.2 °F 22.0 °F 30.25 in Calm     88% 0.00 in
03:58 25.4 °F 22.0 °F 30.25 in Calm   1.0 mph 88% 0.00 in
04:13 25.6 °F 23.0 °F 30.25 in Calm     88% 0.00 in
04:28 25.7 °F 23.0 °F 30.25 in Calm     88% 0.00 in
04:43 25.8 °F 23.0 °F 30.25 in Calm     88% 0.00 in
04:58 25.8 °F 23.0 °F 30.25 in Calm     88% 0.00 in
05:13 25.9 °F 23.0 °F 30.25 in Calm     88% 0.00 in
05:28 26.1 °F 23.0 °F 30.26 in Calm     88% 0.00 in
05:43 26.1 °F 23.0 °F 30.26 in Calm     88% 0.00 in
05:58 26.1 °F 23.0 °F 30.26 in Calm     88% 0.00 in
06:13 26.2 °F 23.0 °F 30.26 in Calm     88% 0.00 in
06:28 26.2 °F 23.0 °F 30.26 in Calm     88% 0.00 in
06:43 26.4 °F 23.0 °F 30.26 in Calm   1.0 mph 88% 0.00 in
06:58 26.6 °F 24.0 °F 30.27 in Calm     88% 0.00 in
07:13 26.7 °F 24.0 °F 30.27 in Calm     88% 0.00 in
07:28 26.8 °F 24.0 °F 30.27 in Calm     88% 0.00 in
07:43 26.8 °F 24.0 °F 30.27 in Calm   1.0 mph 88% 0.00 in
07:58 26.6 °F 24.0 °F 30.27 in Calm   1.0 mph 88% 0.00 in
08:13 26.8 °F 24.0 °F 30.27 in Calm     88% 0.00 in
08:28 26.8 °F 24.0 °F 30.28 in Calm     88% 0.00 in
08:43 26.9 °F 24.0 °F 30.27 in Calm     88% 0.00 in
08:58 26.9 °F 24.0 °F 30.28 in Calm   1.0 mph 88% 0.00 in
09:13 27.1 °F 24.0 °F 30.28 in Calm   1.0 mph 88% 0.00 in
09:28 27.4 °F 24.0 °F 30.29 in Calm     88% 0.00 in
09:43 28.0 °F 25.0 °F 30.28 in Calm     88% 0.00 in
09:58 28.5 °F 25.0 °F 30.28 in Calm     88% 0.00 in
10:13 29.1 °F 25.0 °F 30.28 in Calm   1.0 mph 86% 0.00 in
10:28 29.7 °F 26.0 °F 30.29 in Calm     85% 0.00 in
10:43 30.3 °F 26.0 °F 30.29 in NE 1.0 mph 2.0 mph 85% 0.00 in
10:58 31.2 °F 25.0 °F 30.29 in Calm   2.0 mph 79% 0.00 in
11:13 31.9 °F 25.0 °F 30.29 in Calm   1.0 mph 77% 0.00 in
Compliments of Weather Underground

9 Visitors online right now
Max visitors today: 22 at 07:29 am EST
This month: 32 at 12-18-2014 07:24 am EST
This year: 33 at 09-23-2014 08:38 pm EDT
All time: 104 at 01-04-2012 03:34 am EST
See Who is Online